TimePST,TemperatureF,Dew PointF,Humidity,Sea Level PressureIn,VisibilityMPH,Wind Direction,Wind SpeedMPH,Gust SpeedMPH,PrecipitationIn,Events,Conditions,WindDirDegrees,DateUTC
12:15 AM,44.6,37.4,76,29.71,10.0,SE,15.0,-,N/A,,Overcast,140,2012-11-18 08:15:00
12:35 AM,44.6,37.4,76,29.71,10.0,SSE,16.1,20.7,N/A,,Overcast,150,2012-11-18 08:35:00
12:55 AM,44.6,37.4,76,29.71,10.0,SSE,18.4,-,N/A,,Overcast,150,2012-11-18 08:55:00
1:15 AM,44.6,37.4,76,29.72,10.0,SSE,18.4,23.0,N/A,,Overcast,160,2012-11-18 09:15:00
1:35 AM,44.6,37.4,76,29.73,10.0,SSE,13.8,-,N/A,,Overcast,150,2012-11-18 09:35:00
1:55 AM,44.6,37.4,76,29.73,10.0,SE,12.7,-,N/A,,Overcast,140,2012-11-18 09:55:00
2:15 AM,44.6,37.4,76,29.73,10.0,SE,17.3,24.2,N/A,,Overcast,140,2012-11-18 10:15:00
2:35 AM,44.6,37.4,76,29.74,10.0,SSE,18.4,25.3,N/A,,Overcast,150,2012-11-18 10:35:00
2:55 AM,44.6,37.4,76,29.74,10.0,SSE,13.8,-,N/A,,Overcast,150,2012-11-18 10:55:00
3:15 AM,44.6,39.2,81,29.74,10.0,SE,17.3,25.3,N/A,,Overcast,130,2012-11-18 11:15:00
3:35 AM,44.6,37.4,76,29.74,10.0,SE,13.8,-,N/A,,Overcast,140,2012-11-18 11:35:00
3:55 AM,44.6,37.4,76,29.74,10.0,SSE,18.4,24.2,N/A,,Overcast,160,2012-11-18 11:55:00
4:15 AM,44.6,37.4,76,29.75,10.0,SSE,17.3,21.9,N/A,,Overcast,160,2012-11-18 12:15:00
4:35 AM,44.6,37.4,76,29.75,10.0,SSE,17.3,21.9,N/A,,Overcast,160,2012-11-18 12:35:00
4:55 AM,44.6,37.4,76,29.76,10.0,SSE,13.8,25.3,N/A,,Overcast,160,2012-11-18 12:55:00
5:15 AM,44.6,37.4,76,29.76,10.0,SE,15.0,18.4,N/A,,Overcast,140,2012-11-18 13:15:00
5:35 AM,44.6,37.4,76,29.76,10.0,SE,13.8,25.3,N/A,,Overcast,140,2012-11-18 13:35:00
5:55 AM,44.6,39.2,81,29.76,10.0,SE,17.3,20.7,N/A,,Overcast,130,2012-11-18 13:55:00
6:15 AM,44.6,39.2,81,29.76,10.0,SE,12.7,-,N/A,,Overcast,130,2012-11-18 14:15:00
6:35 AM,44.6,37.4,76,29.75,10.0,SE,18.4,24.2,N/A,,Overcast,130,2012-11-18 14:35:00
6:55 AM,44.6,37.4,76,29.75,10.0,SE,19.6,23.0,N/A,,Mostly Cloudy,130,2012-11-18 14:55:00
7:15 AM,44.6,37.4,76,29.75,10.0,SE,17.3,-,N/A,,Overcast,130,2012-11-18 15:15:00
7:35 AM,44.6,37.4,76,29.75,10.0,SE,12.7,-,N/A,,Overcast,130,2012-11-18 15:35:00
7:55 AM,44.6,39.2,81,29.75,10.0,SE,13.8,-,N/A,,Overcast,140,2012-11-18 15:55:00
8:15 AM,44.6,39.2,81,29.76,10.0,SE,13.8,19.6,N/A,,Overcast,140,2012-11-18 16:15:00
8:35 AM,44.6,39.2,81,29.76,10.0,SSE,11.5,-,N/A,,Overcast,150,2012-11-18 16:35:00
8:55 AM,44.6,39.2,81,29.76,10.0,South,9.2,-,N/A,,Overcast,170,2012-11-18 16:55:00
9:15 AM,44.6,41.0,87,29.76,10.0,SSE,10.4,-,N/A,,Overcast,150,2012-11-18 17:15:00
9:35 AM,44.6,41.0,87,29.76,10.0,SE,13.8,18.4,0.01,,Overcast,140,2012-11-18 17:35:00
9:55 AM,44.6,39.2,81,29.76,10.0,SE,16.1,-,0.01,,Overcast,140,2012-11-18 17:55:00
10:15 AM,44.6,41.0,87,29.76,10.0,SE,15.0,19.6,N/A,,Overcast,140,2012-11-18 18:15:00
10:35 AM,44.6,41.0,87,29.78,10.0,SE,15.0,21.9,N/A,,Overcast,140,2012-11-18 18:35:00
10:55 AM,44.6,41.0,87,29.77,10.0,SE,13.8,-,N/A,,Overcast,130,2012-11-18 18:55:00
11:15 AM,44.6,41.0,87,29.76,10.0,ESE,13.8,-,N/A,,Overcast,110,2012-11-18 19:15:00
11:35 AM,44.6,41.0,87,29.75,10.0,ESE,12.7,19.6,N/A,,Overcast,120,2012-11-18 19:35:00
11:55 AM,46.4,41.0,81,29.74,10.0,East,12.7,18.4,N/A,,Overcast,100,2012-11-18 19:55:00
12:15 PM,46.4,41.0,81,29.73,10.0,ESE,11.5,19.6,N/A,,Overcast,120,2012-11-18 20:15:00
12:35 PM,46.4,39.2,76,29.73,10.0,ESE,13.8,19.6,N/A,,Overcast,120,2012-11-18 20:35:00
12:55 PM,46.4,41.0,81,29.73,10.0,SE,10.4,-,N/A,,Overcast,130,2012-11-18 20:55:00
1:15 PM,46.4,41.0,81,29.72,10.0,SE,17.3,20.7,N/A,,Overcast,130,2012-11-18 21:15:00
1:35 PM,46.4,41.0,81,29.72,10.0,SE,15.0,20.7,N/A,,Overcast,130,2012-11-18 21:35:00
1:55 PM,46.4,41.0,81,29.70,10.0,ESE,11.5,-,N/A,,Overcast,120,2012-11-18 21:55:00
2:15 PM,46.4,41.0,81,29.69,10.0,ESE,9.2,18.4,N/A,,Overcast,110,2012-11-18 22:15:00
2:35 PM,46.4,39.2,76,29.67,10.0,East,10.4,-,N/A,,Overcast,100,2012-11-18 22:35:00
2:55 PM,46.4,39.2,76,29.67,10.0,ESE,9.2,-,N/A,,Overcast,120,2012-11-18 22:55:00
3:15 PM,46.4,41.0,81,29.67,10.0,ESE,10.4,-,N/A,,Overcast,120,2012-11-18 23:15:00
3:35 PM,46.4,41.0,81,29.66,10.0,ESE,12.7,20.7,N/A,,Overcast,120,2012-11-18 23:35:00
3:55 PM,46.4,41.0,81,29.65,10.0,ESE,15.0,23.0,N/A,,Overcast,120,2012-11-18 23:55:00
4:15 PM,46.4,41.0,81,29.64,10.0,ESE,13.8,21.9,N/A,,Overcast,110,2012-11-19 00:15:00
4:35 PM,46.4,41.0,81,29.63,10.0,ESE,11.5,18.4,N/A,,Overcast,110,2012-11-19 00:35:00
4:55 PM,46.4,41.0,81,29.61,10.0,ESE,17.3,-,N/A,,Overcast,110,2012-11-19 00:55:00
5:15 PM,46.4,41.0,81,29.59,10.0,ESE,13.8,19.6,N/A,,Overcast,110,2012-11-19 01:15:00
5:35 PM,46.4,41.0,81,29.57,10.0,ESE,13.8,21.9,N/A,,Overcast,110,2012-11-19 01:35:00
5:55 PM,46.4,41.0,81,29.56,10.0,ESE,13.8,24.2,N/A,,Overcast,110,2012-11-19 01:55:00
6:15 PM,46.4,41.0,81,29.55,10.0,ESE,15.0,23.0,N/A,,Overcast,110,2012-11-19 02:15:00
6:35 PM,46.4,41.0,81,29.54,10.0,ESE,16.1,24.2,0.01,,Overcast,120,2012-11-19 02:35:00
6:55 PM,46.4,41.0,81,29.53,10.0,SE,21.9,31.1,0.04,,Overcast,130,2012-11-19 02:55:00
7:15 PM,46.4,42.8,87,29.55,10.0,SE,20.7,-,N/A,,Overcast,140,2012-11-19 03:15:00
7:35 PM,46.4,42.8,87,29.55,10.0,SE,15.0,21.9,N/A,,Overcast,130,2012-11-19 03:35:00
7:55 PM,46.4,42.8,87,29.56,10.0,ESE,10.4,19.6,0.01,,Overcast,110,2012-11-19 03:55:00
8:35 PM,46.4,42.8,87,29.58,10.0,SE,11.5,20.7,N/A,,Overcast,130,2012-11-19 04:35:00
9:15 PM,46.4,42.8,87,29.58,10.0,ESE,10.4,-,N/A,,Overcast,110,2012-11-19 05:15:00
9:35 PM,46.4,42.8,87,29.58,10.0,ESE,15.0,21.9,N/A,,Overcast,120,2012-11-19 05:35:00
9:55 PM,48.2,42.8,82,29.58,10.0,SE,18.4,21.9,N/A,,Overcast,130,2012-11-19 05:55:00
10:15 PM,48.2,42.8,82,29.58,10.0,SE,12.7,-,N/A,,Overcast,140,2012-11-19 06:15:00
10:35 PM,48.2,42.8,82,29.57,10.0,SE,18.4,24.2,N/A,,Overcast,140,2012-11-19 06:35:00
10:55 PM,48.2,42.8,82,29.57,10.0,SE,19.6,29.9,N/A,,Overcast,140,2012-11-19 06:55:00
11:15 PM,48.2,42.8,82,29.57,10.0,SE,20.7,26.5,N/A,,Overcast,140,2012-11-19 07:15:00
11:35 PM,48.2,42.8,82,29.57,10.0,SE,20.7,27.6,N/A,,Overcast,140,2012-11-19 07:35:00
11:55 PM,48.2,42.8,82,29.58,10.0,SE,19.6,26.5,N/A,,Overcast,140,2012-11-19 07:55:00